Location: *
(29.1167°S, 130.0000°E)
Time: 07:21:13
(UTC+00:00)

Cosmos 2016 Rocket - Pass Details

Date: 21 July 2019
Orbit: 947 x 1001 km, 83.0° (Epoch: 25 August)

Event Time Altitude Azimuth Distance (km) Brightness Sun altitude
Rises 09:06:37 0° 177° (S) 3,655 6.8 -5.7°
Reaches altitude 10° 09:09:15 10° 171° (S) 2,708 6.1 -6.3°
Maximum altitude 09:15:09 45° 99° (E) 1,296 4.3 -7.5°
Drops below altitude 10° 09:21:03 10° 27° (NNE) 2,712 6.3 -8.7°
Sets 09:23:41 0° 20° (NNE) 3,661 7.0 -9.2°
